Wind_Speed
15 13 14 14 13 12 12 13 12 11 11 11 11 11 11 11 11 10 10 10 11 11 12 12 13 14 13 14 14 14 14 15 15 15 15 15 16 16 16 16 17 17 17
15 14 14 14 14 14 13 13 12 12 11 12 12 11 11 11 11 11 11 11 12 12 12 12 13 13 13 14 14 14 15 14 15 15 15 15 15 15 16 17 17 17 17
15 15 14 14 13 13 13 13 12 12 12 12 12 11 11 11 11 12 12 12 12 12 12 13 14 14 14 14 14 15 14 14 15 14 15 16 16 16 16 16 17 18 18
15 14 14 13 13 13 13 12 12 12 12 12 12 12 12 11 11 11 12 12 12 12 12 12 13 13 13 13 13 14 14 14 14 15 16 16 17 17 16 17 18 19 19
15 14 13 13 13 13 13 13 12 12 11 12 11 11 11 11 11 11 11 11 11 12 12 12 12 12 12 12 13 14 14 14 15 16 16 16 17 17 17 17 18 18 19
14 13 13 13 13 13 13 12 12 12 12 11 11 11 11 11 11 11 11 11 12 12 13 13 12 12 12 13 14 14 15 15 15 16 16 16 17 18 18 17 18 18 19
13 13 13 13 12 12 12 12 12 11 11 12 11 11 12 11 11 11 12 12 12 11 11 12 12 13 13 14 14 14 15 15 15 15 16 17 17 17 18 18 18 19 19
13 12 12 12 12 13 12 12 12 12 12 13 13 12 11 12 12 11 11 11 11 11 11 11 11 12 12 13 13 13 14 14 15 15 16 16 17 17 17 18 19 20 20
13 12 13 12 13 13 13 13 13 13 13 13 13 12 11 12 12 12 12 11 11 11 11 11 11 12 12 12 12 13 14 15 15 15 15 16 17 17 17 18 19 19 20
13 14 14 13 13 13 13 14 14 14 14 13 13 13 12 12 12 12 11 11 10 10 11 11 12 13 13 13 13 14 14 14 15 15 16 16 17 17 18 18 19 19 19
14 14 14 15 14 15 15 15 14 14 14 14 13 12 12 11 12 12 12 11 11 11 11 11 11 12 12 13 13 14 14 14 15 16 16 16 17 18 18 18 18 18 18
14 15 14 14 14 15 15 14 14 14 15 15 14 13 14 14 13 13 13 13 13 12 12 12 12 13 13 12 13 13 14 15 15 16 16 16 16 17 18 18 18 18 18
15 14 14 14 15 16 15 15 15 15 15 15 15 15 15 14 14 14 15 14 14 13 13 13 13 13 13 13 13 14 14 15 16 16 16 16 17 17 17 17 18 17 17
15 15 15 15 15 15 16 15 16 16 15 15 16 16 16 15 15 15 16 16 15 15 14 14 14 14 13 14 14 15 15 15 15 16 16 16 16 16 17 18 18 19 19
16 16 16 16 16 16 16 16 17 17 17 17 17 17 17 16 16 16 16 16 15 15 15 14 13 13 14 15 15 15 15 15 16 16 17 18 18 18 18 18 19 20 20
16 16 16 16 17 17 16 17 17 17 18 18 18 18 17 17 17 17 17 17 16 15 15 15 14 14 15 15 15 15 15 16 16 16 16 17 18 18 18 19 19 19 20
15 16 16 16 17 16 16 16 16 16 17 17 17 17 16 16 16 17 17 17 16 16 16 15 15 15 15 16 16 17 17 17 17 16 16 17 18 18 19 19 19 20 21
17 17 16 16 17 17 17 17 17 17 18 17 17 17 16 16 16 17 17 16 15 15 16 16 16 17 17 17 18 18 19 19 18 18 18 18 19 19 19 19 20 20 21
18 17 17 17 17 17 18 19 19 18 18 18 18 17 17 17 17 17 17 17 17 18 18 19 19 19 20 20 20 20 20 20 20 19 19 19 19 19 19 20 20 21 21
19 19 18 18 18 17 17 18 18 18 18 18 17 17 17 17 17 18 18 19 19 20 20 20 21 21 22 22 21 21 21 21 21 21 21 21 20 20 20 20 20 21 21
19 19 18 18 18 18 18 18 18 18 18 18 17 17 18 18 18 19 19 19 20 21 21 22 22 22 22 22 22 22 22 22 22 22 22 22 21 21 21 21 21 21 21
19 19 18 18 19 19 19 18 18 19 19 18 18 19 19 19 19 19 19 20 21 21 22 22 22 23 23 23 23 23 23 23 23 23 23 23 22 22 23 23 22 22 23
19 19 19 20 20 20 20 20 20 19 19 20 20 19 19 19 19 20 20 20 21 21 21 22 22 22 23 23 23 24 24 23 23 23 23 23 23 23 23 23 23 24 24
20 20 20 21 21 20 20 20 20 20 21 21 21 20 20 20 20 20 20 20 20 20 20 21 21 22 22 22 22 23 23 23 23 23 23 23 23 23 23 23 24 25 25
20 21 21 21 21 21 21 21 21 21 20 20 21 21 21 21 21 21 21 21 21 21 22 22 22 22 23 23 23 23 23 23 23 24 24 24 24 24 24 24 24 25 25
21 21 21 21 21 21 21 21 21 21 20 21 21 21 22 22 22 21 22 22 22 22 22 22 23 23 23 23 23 24 24 24 24 24 24 23 23 24 24 24 25 25 25
Wind_Direction
265 269 271 276 281 282 281 273 274 276 279 278 279 280 281 278 276 275 272 266 263 265 266 266 267 265 261 262 265 263 262 258 260 262 264 265 265 263 261 260 259 261 262
265 266 269 272 275 278 279 274 272 273 273 277 277 274 275 274 271 273 274 271 268 268 268 268 268 266 261 262 263 260 260 261 261 264 266 265 266 264 263 262 260 261 262
268 266 268 270 275 277 278 272 274 275 274 274 276 273 275 274 274 272 273 277 275 272 270 271 270 266 266 265 265 263 260 263 264 265 266 266 266 268 266 266 264 263 262
267 269 270 275 278 276 275 274 274 274 274 275 277 275 273 272 273 273 274 275 274 274 274 275 274 268 264 264 265 266 265 266 265 265 265 265 267 269 267 266 265 263 263
270 271 271 274 277 274 272 272 272 273 276 277 275 273 273 274 273 273 274 275 276 276 273 279 277 270 265 269 271 271 270 269 268 269 267 267 268 267 269 269 268 268 267
264 267 268 272 276 272 270 268 271 274 278 279 276 274 275 273 273 274 274 276 278 281 278 278 273 268 268 272 271 272 273 272 269 268 267 266 268 267 268 269 270 269 270
259 263 265 268 270 271 269 268 275 278 279 278 278 276 276 274 273 277 276 278 280 281 280 280 271 270 271 271 272 274 272 272 272 270 268 267 267 267 268 269 269 271 272
254 258 262 262 265 267 268 269 272 276 277 278 277 279 275 275 276 277 279 278 281 281 282 286 278 277 275 273 271 272 274 274 275 276 273 270 268 268 269 268 269 272 273
253 257 261 264 267 268 267 269 271 273 275 276 274 273 274 275 277 280 278 278 281 282 278 285 280 279 278 275 273 273 277 276 276 278 275 271 268 271 273 270 270 273 274
258 259 260 264 266 268 270 271 272 271 272 271 270 271 273 274 275 279 282 285 283 282 280 282 281 276 274 271 272 274 276 276 277 277 276 272 270 271 272 270 272 274 274
261 260 261 262 263 266 268 269 268 268 269 269 269 271 272 274 276 279 281 282 282 281 280 281 279 276 277 277 277 279 280 280 281 281 278 277 274 273 273 273 273 274 274
265 264 263 262 262 266 265 265 265 266 267 267 268 269 273 274 273 277 279 279 280 281 280 281 279 276 274 278 279 281 283 282 286 287 284 284 282 279 278 277 276 276 276
263 261 263 262 262 264 264 263 262 264 266 266 268 269 273 275 272 274 275 277 278 279 280 280 280 278 275 277 280 282 284 284 285 287 288 288 288 286 283 281 278 276 276
263 263 263 263 265 265 265 263 260 263 266 268 270 270 272 273 273 273 274 274 276 277 276 282 280 278 279 280 280 280 283 287 291 290 290 290 290 292 289 285 279 276 275
260 259 262 264 265 266 266 264 263 262 265 267 269 270 270 270 272 273 273 274 276 276 277 281 283 282 283 284 284 282 285 289 291 290 289 288 287 290 290 287 283 281 279
256 258 261 262 264 263 263 263 262 263 265 266 267 269 268 269 270 270 271 273 274 274 276 279 281 282 283 285 286 283 284 288 288 288 288 286 286 288 290 289 286 285 285
260 263 265 264 262 263 265 261 262 264 266 267 268 271 269 269 268 268 270 270 272 274 275 276 280 281 283 284 283 283 285 287 289 288 289 290 290 290 290 289 287 287 286
261 262 264 266 268 267 266 266 267 267 268 268 268 269 270 270 270 268 269 270 269 272 276 279 282 282 283 284 285 286 284 285 288 287 287 288 289 288 289 288 289 289 288
261 263 265 266 267 268 267 266 265 266 267 267 269 272 272 273 272 269 269 269 269 273 276 278 280 282 284 285 286 286 286 286 287 287 287 288 289 289 289 289 289 289 288
260 261 261 263 266 268 268 267 265 267 268 270 273 275 277 276 274 274 272 270 271 274 275 277 280 282 282 282 284 286 286 287 288 288 288 289 289 289 289 288 289 290 289
260 261 261 263 265 267 269 268 267 267 267 269 272 275 279 280 279 278 277 275 275 276 277 279 281 282 283 283 284 284 284 284 286 287 288 289 289 288 287 287 288 289 288
257 258 260 263 265 267 268 269 268 268 268 270 273 275 277 278 280 280 279 279 279 279 281 281 281 281 283 285 285 284 284 284 284 286 287 288 287 286 287 287 288 288 287
257 257 258 262 264 266 267 268 268 267 268 270 271 273 274 275 278 279 278 279 281 280 280 280 281 282 284 283 283 283 284 284 284 285 286 287 287 287 288 287 288 288 288
259 259 260 263 264 267 270 270 271 269 267 269 270 271 273 274 275 278 277 277 278 279 281 281 281 283 284 284 284 284 283 283 283 284 284 285 287 288 288 288 289 289 288
260 261 262 263 265 267 269 270 271 270 267 268 269 270 271 274 275 276 277 278 279 279 280 282 284 284 284 284 285 287 285 284 282 282 284 286 288 289 288 288 289 291 290
261 261 261 263 264 266 268 268 269 269 270 269 269 271 272 274 275 276 277 277 278 280 280 281 283 283 284 284 284 285 285 285 284 283 284 286 287 288 289 289 290 292 292
Height
5842 5841 5841 5841 5840 5839 5838 5838 5837 5836 5836 5835 5834 5834 5834 5833 5833 5833 5832 5832 5831 5831 5831 5831 5831 5831 5831 5831 5831 5831 5832 5832 5832 5832 5832 5832 5832 5832 5833 5833 5833 5833 5833
5838 5838 5838 5837 5837 5836 5835 5835 5834 5833 5832 5832 5832 5831 5830 5830 5830 5829 5829 5829 5828 5828 5827 5827 5827 5827 5827 5828 5828 5828 5828 5828 5828 5828 5828 5828 5829 5828 5828 5828 5828 5829 5829
5834 5834 5834 5834 5833 5833 5832 5832 5831 5830 5829 5829 5828 5827 5827 5827 5826 5826 5826 5826 5825 5824 5824 5824 5824 5824 5824 5824 5824 5824 5824 5824 5824 5824 5824 5824 5824 5824 5824 5823 5824 5824 5824
5831 5830 5830 5830 5830 5829 5829 5828 5828 5827 5827 5826 5825 5825 5824 5824 5823 5823 5822 5822 5822 5821 5821 5820 5820 5820 5820 5820 5820 5820 5820 5820 5820 5819 5819 5819 5819 5819 5819 5819 5819 5819 5819
5827 5827 5827 5827 5827 5826 5825 5825 5825 5824 5824 5823 5823 5822 5822 5821 5820 5820 5819 5819 5819 5818 5818 5817 5817 5817 5817 5817 5817 5816 5816 5816 5815 5815 5814 5814 5814 5813 5814 5814 5814 5814 5814
5823 5823 5824 5824 5824 5823 5823 5823 5822 5822 5821 5820 5820 5819 5819 5818 5818 5817 5817 5816 5816 5815 5815 5814 5814 5814 5814 5813 5813 5813 5812 5812 5811 5810 5809 5809 5809 5809 5809 5809 5809 5809 5809
5820 5820 5820 5821 5821 5821 5821 5820 5820 5819 5819 5818 5817 5817 5816 5816 5815 5815 5814 5814 5813 5813 5812 5811 5811 5810 5810 5810 5809 5809 5808 5808 5807 5806 5805 5804 5804 5804 5804 5804 5804 5804 5804
5816 5817 5817 5817 5817 5817 5818 5817 5817 5817 5816 5815 5815 5814 5814 5813 5813 5813 5812 5811 5811 5810 5810 5809 5808 5807 5807 5806 5806 5805 5804 5803 5802 5802 5801 5800 5800 5800 5799 5799 5799 5799 5799
5813 5814 5814 5814 5814 5814 5814 5814 5814 5814 5813 5813 5812 5812 5811 5811 5810 5810 5809 5809 5808 5807 5807 5806 5805 5805 5804 5803 5803 5802 5801 5800 5798 5798 5796 5796 5795 5795 5794 5794 5794 5794 5794
5810 5810 5810 5811 5811 5811 5811 5811 5811 5811 5810 5810 5809 5809 5808 5808 5808 5807 5806 5806 5805 5804 5804 5803 5802 5802 5801 5800 5799 5798 5797 5796 5795 5794 5793 5792 5791 5790 5790 5790 5789 5789 5788
5806 5807 5807 5807 5807 5807 5807 5807 5808 5808 5807 5807 5806 5806 5805 5805 5804 5804 5804 5803 5802 5802 5801 5800 5799 5799 5798 5797 5796 5795 5794 5793 5792 5791 5789 5788 5787 5786 5785 5785 5784 5783 5783
5803 5803 5803 5804 5804 5804 5804 5804 5804 5804 5804 5803 5803 5803 5802 5802 5802 5801 5801 5800 5800 5799 5798 5797 5797 5795 5794 5793 5792 5791 5790 5789 5788 5787 5786 5784 5783 5782 5781 5780 5779 5779 5778
5799 5799 5799 5800 5800 5800 5800 5800 5800 5800 5800 5800 5799 5799 5799 5798 5798 5798 5797 5797 5796 5796 5795 5794 5793 5792 5791 5790 5789 5788 5787 5786 5785 5783 5782 5780 5779 5778 5777 5775 5775 5774 5773
5795 5795 5795 5795 5795 5796 5796 5796 5796 5796 5796 5796 5796 5795 5795 5795 5794 5794 5794 5793 5793 5792 5791 5791 5789 5788 5787 5786 5785 5784 5783 5782 5780 5779 5778 5776 5775 5774 5772 5771 5770 5769 5768
5791 5791 5791 5791 5791 5791 5791 5791 5792 5792 5792 5792 5792 5791 5791 5791 5790 5790 5790 5789 5789 5788 5787 5787 5785 5784 5783 5782 5781 5780 5779 5778 5776 5775 5773 5772 5771 5769 5768 5766 5765 5764 5763
5788 5788 5787 5787 5787 5787 5787 5787 5787 5787 5788 5787 5787 5787 5787 5786 5786 5786 5786 5785 5785 5784 5783 5782 5781 5780 5779 5778 5777 5776 5775 5774 5772 5770 5768 5767 5766 5765 5763 5762 5760 5759 5758
5783 5783 5783 5783 5783 5783 5783 5783 5783 5783 5783 5782 5782 5782 5782 5781 5781 5781 5781 5781 5780 5779 5779 5778 5777 5776 5775 5774 5773 5771 5770 5769 5767 5766 5764 5762 5761 5760 5758 5756 5755 5754 5752
5779 5778 5778 5779 5778 5778 5778 5778 5778 5778 5778 5778 5778 5777 5777 5777 5777 5776 5776 5776 5776 5775 5774 5773 5772 5771 5770 5769 5768 5766 5765 5764 5762 5761 5759 5757 5756 5754 5753 5751 5750 5748 5746
5773 5774 5774 5774 5774 5773 5773 5773 5773 5773 5773 5773 5773 5773 5772 5772 5772 5772 5771 5771 5771 5770 5769 5768 5767 5765 5764 5763 5762 5761 5759 5758 5757 5755 5754 5752 5751 5749 5747 5746 5744 5742 5740
5768 5768 5769 5769 5769 5769 5769 5768 5768 5768 5768 5768 5768 5768 5767 5767 5767 5766 5766 5765 5765 5764 5763 5762 5761 5759 5758 5757 5755 5754 5753 5752 5750 5749 5748 5746 5745 5743 5742 5740 5738 5736 5734
5762 5763 5763 5763 5763 5763 5763 5763 5763 5763 5763 5763 5763 5762 5762 5761 5761 5760 5760 5759 5759 5758 5757 5755 5754 5753 5752 5750 5749 5748 5747 5745 5744 5743 5741 5740 5738 5737 5735 5733 5732 5730 5728
5757 5757 5758 5758 5758 5758 5758 5758 5758 5758 5758 5757 5757 5757 5756 5756 5755 5755 5754 5753 5752 5751 5750 5748 5747 5746 5745 5744 5742 5741 5740 5739 5737 5736 5734 5733 5732 5730 5729 5727 5725 5723 5721
5751 5751 5752 5752 5752 5752 5752 5752 5752 5752 5752 5751 5751 5751 5750 5750 5750 5749 5748 5747 5746 5744 5743 5742 5741 5739 5738 5737 5735 5734 5733 5731 5730 5729 5727 5726 5724 5723 5721 5720 5718 5716 5714
5745 5745 5746 5746 5746 5746 5746 5746 5746 5745 5745 5745 5745 5745 5744 5744 5743 5743 5742 5741 5740 5738 5737 5736 5734 5733 5731 5730 5728 5727 5726 5725 5723 5722 5720 5719 5717 5716 5714 5712 5711 5709 5707
5738 5739 5739 5739 5740 5740 5740 5740 5739 5739 5739 5739 5739 5738 5738 5738 5737 5736 5735 5734 5733 5732 5731 5730 5728 5726 5725 5724 5722 5720 5719 5718 5716 5715 5713 5712 5710 5708 5707 5705 5703 5701 5699
5732 5732 5732 5733 5733 5733 5733 5733 5733 5733 5733 5732 5732 5732 5731 5731 5730 5729 5729 5728 5727 5726 5725 5723 5722 5720 5719 5717 5716 5714 5712 5711 5709 5708 5706 5705 5703 5701 5699 5697 5695 5693 5691